| time (UTC) | temp F | wind direction | speed knots | gust knots | rain 1hr in | rain 24hr in | rain mn in | humidity % | barometer mb |
| 20260504050509 | 56 | 172 | 5.2 | 13.0 | 0.00 | 0.00 | 0.00 | 67 | 1008.5 |
| 20260504045511 | 57 | 231 | 6.1 | 10.4 | 0.00 | 0.00 | 0.00 | 67 | 1008.5 |
| 20260504045007 | 57 | 217 | 6.1 | 9.6 | 0.00 | 0.00 | 0.00 | 67 | 1008.5 |
| 20260504044527 | 57 | 226 | 6.1 | 9.6 | 0.00 | 0.00 | 0.00 | 66 | 1008.6 |
| 20260504044016 | 57 | 227 | 6.1 | 9.6 | 0.00 | 0.00 | 0.00 | 66 | 1008.5 |
| 20260504043510 | 57 | 215 | 6.1 | 9.6 | 0.00 | 0.00 | 0.00 | 65 | 1008.6 |
| 20260504043032 | 57 | 210 | 6.1 | 9.6 | 0.00 | 0.00 | 0.00 | 65 | 1008.6 |
| 20260504042512 | 57 | 242 | 4.3 | 9.6 | 0.00 | 0.00 | 0.00 | 65 | 1008.5 |
| 20260504042010 | 57 | 221 | 5.2 | 9.6 | 0.00 | 0.00 | 0.00 | 65 | 1008.6 |
| 20260504041533 | 57 | 227 | 4.3 | 9.6 | 0.00 | 0.00 | 0.00 | 65 | 1008.7 |
| 20260504041013 | 57 | 207 | 4.3 | 8.7 | 0.00 | 0.00 | 0.00 | 65 | 1008.6 |
| 20260504040507 | 57 | 218 | 5.2 | 7.8 | 0.00 | 0.00 | 0.00 | 64 | 1008.6 |
| 20260504040031 | 57 | 212 | 5.2 | 7.8 | 0.00 | 0.00 | 0.00 | 64 | 1008.6 |
| 20260504035512 | 58 | 229 | 3.5 | 10.4 | 0.00 | 0.00 | 0.00 | 64 | 1008.7 |
| 20260504035008 | 58 | 218 | 5.2 | 9.6 | 0.00 | 0.00 | 0.00 | 64 | 1008.7 |
| 20260504034524 | 58 | 214 | 5.2 | 9.6 | 0.00 | 0.00 | 0.00 | 63 | 1008.8 |
| 20260504034008 | 58 | 193 | 4.3 | 8.7 | 0.00 | 0.00 | 0.00 | 63 | 1008.8 |
| 20260504033512 | 58 | 219 | 3.5 | 8.7 | 0.00 | 0.00 | 0.00 | 63 | 1008.8 |
| 20260504033012 | 58 | 215 | 3.5 | 8.7 | 0.00 | 0.00 | 0.00 | 62 | 1008.9 |
| 20260504032510 | 58 | 211 | 3.5 | 14.8 | 0.00 | 0.00 | 0.00 | 62 | 1008.9 |
| 20260504032017 | 58 | 158 | 6.1 | 13.0 | 0.00 | 0.00 | 0.00 | 62 | 1008.9 |
| 20260504031518 | 58 | 205 | 4.3 | 8.7 | 0.00 | 0.00 | 0.00 | 62 | 1008.9 |
| 20260504031010 | 58 | 190 | 4.3 | 8.7 | 0.00 | 0.00 | 0.00 | 62 | 1009.0 |
| 20260504030512 | 58 | 171 | 4.3 | 8.7 | 0.00 | 0.00 | 0.00 | 62 | 1008.9 |
| 20260504030040 | 59 | 218 | 3.5 | 9.6 | 0.00 | 0.00 | 0.00 | 62 | 1009.0 |
| 20260504025512 | 59 | 193 | 4.3 | 7.8 | 0.00 | 0.00 | 0.00 | 62 | 1009.0 |
| 20260504025010 | 58 | 201 | 3.5 | 7.8 | 0.00 | 0.00 | 0.00 | 62 | 1009.0 |
| 20260504024531 | 58 | 222 | 3.5 | 7.8 | 0.00 | 0.00 | 0.00 | 62 | 1009.0 |
| 20260504024008 | 58 | 184 | 3.5 | 7.0 | 0.00 | 0.00 | 0.00 | 62 | 1009.0 |
| 20260504023513 | 58 | 216 | 2.6 | 7.0 | 0.00 | 0.00 | 0.00 | 63 | 1009.0 |
| 20260504023030 | 57 | 200 | 4.3 | 6.1 | 0.00 | 0.00 | 0.00 | 63 | 1008.9 |
| 20260504022507 | 57 | 177 | 4.3 | 5.2 | 0.00 | 0.00 | 0.00 | 64 | 1009.0 |
| 20260504022011 | 57 | 181 | 4.3 | 6.1 | 0.00 | 0.00 | 0.00 | 63 | 1008.9 |
| 20260504021533 | 58 | 185 | 4.3 | 6.1 | 0.00 | 0.00 | 0.00 | 62 | 1009.0 |
| 20260504021012 | 58 | 182 | 3.5 | 8.7 | 0.00 | 0.00 | 0.00 | 60 | 1008.9 |
| 20260504020511 | 59 | 160 | 4.3 | 7.8 | 0.00 | 0.00 | 0.00 | 60 | 1008.9 |
| 20260504020019 | 59 | 193 | 5.2 | 8.7 | 0.00 | 0.00 | 0.00 | 58 | 1008.8 |
| 20260504015512 | 60 | 167 | 5.2 | 7.8 | 0.00 | 0.00 | 0.00 | 58 | 1008.9 |
| 20260504015011 | 60 | 200 | 6.1 | 7.0 | 0.00 | 0.00 | 0.00 | 56 | 1008.8 |
| 20260504014539 | 60 | 190 | 4.3 | 7.0 | 0.00 | 0.00 | 0.00 | 56 | 1008.9 |
| 20260504014013 | 60 | 212 | 2.6 | 7.0 | 0.00 | 0.00 | 0.00 | 56 | 1008.9 |
| 20260504013508 | 61 | 214 | 4.3 | 6.1 | 0.00 | 0.00 | 0.00 | 56 | 1008.8 |
| 20260504013034 | 61 | 212 | 3.5 | 6.1 | 0.00 | 0.00 | 0.00 | 55 | 1008.8 |
| 20260504012510 | 61 | 191 | 2.6 | 6.1 | 0.00 | 0.00 | 0.00 | 55 | 1008.9 |
| 20260504012017 | 61 | 198 | 2.6 | 8.7 | 0.00 | 0.00 | 0.00 | 54 | 1008.8 |
| 20260504011532 | 61 | 205 | 4.3 | 7.8 | 0.00 | 0.00 | 0.00 | 54 | 1008.8 |
| 20260504011010 | 62 | 219 | 3.5 | 7.8 | 0.00 | 0.00 | 0.00 | 53 | 1008.7 |
| 20260504010507 | 62 | 197 | 4.3 | 7.8 | 0.00 | 0.00 | 0.00 | 52 | 1008.7 |
| 20260504010031 | 62 | 161 | 2.6 | 7.0 | 0.00 | 0.00 | 0.00 | 52 | 1008.8 |
| 20260504005510 | 63 | 219 | 3.5 | 5.2 | 0.00 | 0.00 | 0.00 | 51 | 1008.8 |
| 20260504005010 | 63 | 205 | 3.5 | 11.3 | 0.00 | 0.00 | 0.00 | 50 | 1008.8 |
| 20260504004534 | 63 | 187 | 5.2 | 11.3 | 0.00 | 0.00 | 0.00 | 50 | 1008.7 |
| 20260504004012 | 64 | 217 | 4.3 | 9.6 | 0.00 | 0.00 | 0.00 | 50 | 1008.8 |
| 20260504003511 | 64 | 209 | 5.2 | 11.3 | 0.00 | 0.00 | 0.00 | 48 | 1008.8 |
| 20260504003038 | 64 | 210 | 5.2 | 12.2 | 0.00 | 0.00 | 0.00 | 48 | 1008.8 |
| 20260504002509 | 65 | 252 | 7.0 | 13.9 | 0.00 | 0.00 | 0.00 | 48 | 1008.8 |
| 20260504002013 | 65 | 228 | 8.7 | 13.9 | 0.00 | 0.00 | 0.00 | 48 | 1008.8 |
| 20260504001533 | 65 | 226 | 7.0 | 13.9 | 0.00 | 0.00 | 0.00 | 47 | 1008.8 |
| 20260504001008 | 65 | 212 | 9.6 | 12.2 | 0.00 | 0.00 | 0.00 | 47 | 1008.9 |
| 20260504000514 | 65 | 217 | 7.0 | 11.3 | 0.00 | 0.00 | 0.00 | 47 | 1008.9 |
| 20260504000030 | 66 | 207 | 6.1 | 10.4 | 0.00 | 0.00 | 0.00 | 47 | 1008.9 |
| 20260503235508 | 66 | 208 | 7.8 | 10.4 | 0.00 | 0.00 | 0.00 | 47 | 1008.9 |
| 20260503235011 | 65 | 221 | 8.7 | 13.0 | 0.00 | 0.00 | 0.00 | 48 | 1008.9 |
| 20260503234543 | 65 | 225 | 8.7 | 14.8 | 0.00 | 0.00 | 0.00 | 47 | 1009.0 |
| 20260503234007 | 65 | 216 | 8.7 | 12.2 | 0.00 | 0.00 | 0.00 | 47 | 1009.1 |
| 20260503233509 | 65 | 219 | 7.8 | 14.8 | 0.00 | 0.00 | 0.00 | 48 | 1009.1 |
| 20260503233034 | 65 | 219 | 10.4 | 17.4 | 0.00 | 0.00 | 0.00 | 47 | 1009.1 |
| 20260503232513 | 65 | 206 | 8.7 | 17.4 | 0.00 | 0.00 | 0.00 | 46 | 1009.1 |
| 20260503232011 | 65 | 230 | 8.7 | 17.4 | 0.00 | 0.00 | 0.00 | 47 | 1009.2 |
| 20260503231532 | 65 | 205 | 10.4 | 17.4 | 0.00 | 0.00 | 0.00 | 47 | 1009.2 |
| 20260503231013 | 65 | 202 | 7.8 | 16.5 | 0.00 | 0.00 | 0.00 | 47 | 1009.3 |
| 20260503230516 | 64 | 221 | 8.7 | 16.5 | 0.00 | 0.00 | 0.00 | 49 | 1009.3 |
| 20260503230039 | 63 | 228 | 7.8 | 11.3 | 0.00 | 0.00 | 0.00 | 50 | 1009.3 |
| 20260503225516 | 63 | 261 | 7.8 | 16.5 | 0.00 | 0.00 | 0.00 | 50 | 1009.4 |
| 20260503225015 | 63 | 219 | 8.7 | 16.5 | 0.00 | 0.00 | 0.00 | 50 | 1009.6 |
| 20260503224527 | 63 | 233 | 10.4 | 17.4 | 0.00 | 0.00 | 0.00 | 50 | 1009.6 |
| 20260503224009 | 64 | 219 | 11.3 | 20.0 | 0.00 | 0.00 | 0.00 | 49 | 1009.7 |
| 20260503223514 | 64 | 212 | 13.0 | 20.0 | 0.00 | 0.00 | 0.00 | 47 | 1009.7 |
| 20260503223029 | 65 | 217 | 13.0 | 18.2 | 0.00 | 0.00 | 0.00 | 46 | 1009.7 |
| 20260503222510 | 65 | 165 | 9.6 | 21.7 | 0.00 | 0.00 | 0.00 | 47 | 1009.7 |
| 20260503222017 | 64 | 221 | 12.2 | 21.7 | 0.00 | 0.00 | 0.00 | 47 | 1009.9 |
| 20260503221532 | 64 | 230 | 14.8 | 21.7 | 0.00 | 0.00 | 0.00 | 48 | 1010.0 |
| 20260503221013 | 64 | 214 | 16.5 | 28.7 | 0.00 | 0.00 | 0.00 | 46 | 1009.9 |
| 20260503220517 | 65 | 212 | 18.2 | 25.2 | 0.00 | 0.00 | 0.00 | 46 | 1010.0 |
| 20260503220044 | 64 | 194 | 14.8 | 21.7 | 0.00 | 0.00 | 0.00 | 46 | 1010.0 |
| 20260503215517 | 64 | 228 | 13.0 | 21.7 | 0.00 | 0.00 | 0.00 | 47 | 1010.0 |
| 20260503215015 | 64 | 205 | 14.8 | 21.7 | 0.00 | 0.00 | 0.00 | 47 | 1010.0 |
| 20260503214531 | 64 | 207 | 13.0 | 21.7 | 0.00 | 0.00 | 0.00 | 47 | 1009.9 |
| 20260503214011 | 63 | 213 | 7.0 | 19.1 | 0.00 | 0.00 | 0.00 | 48 | 1009.8 |
| 20260503213514 | 62 | 214 | 11.3 | 22.6 | 0.00 | 0.00 | 0.00 | 47 | 1009.9 |
| 20260503213029 | 63 | 264 | 13.0 | 22.6 | 0.00 | 0.00 | 0.00 | 46 | 1010.0 |
| 20260503212510 | 64 | 212 | 13.9 | 22.6 | 0.00 | 0.00 | 0.00 | 45 | 1010.0 |
| 20260503212011 | 63 | 191 | 13.9 | 20.9 | 0.00 | 0.00 | 0.00 | 45 | 1010.2 |
| 20260503211531 | 63 | 212 | 14.8 | 24.3 | 0.00 | 0.00 | 0.00 | 46 | 1010.2 |
| 20260503211015 | 64 | 323 | 15.6 | 24.3 | 0.00 | 0.00 | 0.00 | 44 | 1010.3 |
| 20260503210511 | 63 | 227 | 14.8 | 25.2 | 0.00 | 0.00 | 0.00 | 45 | 1010.3 |
| 20260503210031 | 63 | 195 | 14.8 | 25.2 | 0.00 | 0.00 | 0.00 | 45 | 1010.4 |
| 20260503205514 | 64 | 212 | 10.4 | 22.6 | 0.00 | 0.00 | 0.00 | 47 | 1010.5 |
| 20260503205005 | 63 | 220 | 12.2 | 25.2 | 0.00 | 0.00 | 0.00 | 46 | 1010.5 |
| 20260503204506 | 63 | 218 | 14.8 | 25.2 | 0.00 | 0.00 | 0.00 | 47 | 1010.7 |
| 20260503204009 | 63 | 214 | 11.3 | 18.2 | 0.00 | 0.00 | 0.00 | 47 | 1010.7 |
| 20260503203504 | 62 | 199 | 10.4 | 23.5 | 0.00 | 0.00 | 0.00 | 46 | 1010.7 |
| 20260503203018 | 63 | 275 | 13.9 | 25.2 | 0.00 | 0.00 | 0.00 | 45 | 1010.7 |
| 20260503202506 | 63 | 216 | 11.3 | 24.3 | 0.00 | 0.00 | 0.00 | 47 | 1010.8 |
| 20260503202004 | 62 | 212 | 15.6 | 23.5 | 0.00 | 0.00 | 0.00 | 46 | 1010.9 |
| 20260503201508 | 62 | 224 | 11.3 | 23.5 | 0.00 | 0.00 | 0.00 | 45 | 1011.0 |
| 20260503201006 | 62 | 208 | 13.0 | 22.6 | 0.00 | 0.00 | 0.00 | 45 | 1011.1 |
| 20260503200505 | 62 | 236 | 11.3 | 22.6 | 0.00 | 0.00 | 0.00 | 45 | 1011.2 |
| 20260503200008 | 62 | 205 | 13.9 | 24.3 | 0.00 | 0.00 | 0.00 | 44 | 1011.3 |
| 20260503195503 | 62 | 204 | 11.3 | 24.3 | 0.00 | 0.00 | 0.00 | 43 | 1011.3 |
| 20260503195005 | 62 | 198 | 13.9 | 24.3 | 0.00 | 0.00 | 0.00 | 45 | 1011.3 |
| 20260503194507 | 62 | 213 | 14.8 | 20.0 | 0.00 | 0.00 | 0.00 | 44 | 1011.4 |
| 20260503194005 | 62 | 226 | 12.2 | 20.0 | 0.00 | 0.00 | 0.00 | 44 | 1011.4 |
| 20260503193508 | 62 | 203 | 9.6 | 20.0 | 0.00 | 0.00 | 0.00 | 43 | 1011.6 |
| 20260503193011 | 62 | 216 | 11.3 | 17.4 | 0.00 | 0.00 | 0.00 | 43 | 1011.6 |
| 20260503192505 | 62 | 207 | 8.7 | 20.9 | 0.00 | 0.00 | 0.00 | 43 | 1011.8 |
| 20260503192005 | 62 | 175 | 9.6 | 25.2 | 0.00 | 0.00 | 0.00 | 44 | 1012.0 |
| 20260503191518 | 62 | 219 | 17.4 | 24.3 | 0.00 | 0.00 | 0.00 | 45 | 1012.2 |
| 20260503191009 | 62 | 220 | 11.3 | 23.5 | 0.00 | 0.00 | 0.00 | 44 | 1012.1 |
| 20260503190504 | 61 | 220 | 13.0 | 20.9 | 0.00 | 0.00 | 0.00 | 43 | 1012.2 |
| 20260503190008 | 61 | 225 | 13.9 | 20.0 | 0.00 | 0.00 | 0.00 | 43 | 1012.4 |
| 20260503185503 | 61 | 205 | 9.6 | 13.9 | 0.00 | 0.00 | 0.00 | 44 | 1012.5 |
| 20260503185006 | 61 | 224 | 10.4 | 16.5 | 0.00 | 0.00 | 0.00 | 44 | 1012.6 |
| 20260503184509 | 62 | 219 | 10.4 | 20.0 | 0.00 | 0.00 | 0.00 | 46 | 1012.7 |
| 20260503184004 | 62 | 224 | 8.7 | 21.7 | 0.00 | 0.00 | 0.00 | 45 | 1012.7 |
| 20260503183505 | 62 | 221 | 12.2 | 21.7 | 0.00 | 0.00 | 0.00 | 45 | 1012.8 |
| 20260503183010 | 62 | 208 | 12.2 | 20.9 | 0.00 | 0.00 | 0.00 | 45 | 1013.0 |
| 20260503182507 | 61 | 207 | 15.6 | 20.9 | 0.00 | 0.00 | 0.00 | 45 | 1013.1 |
| 20260503182006 | 61 | 207 | 7.8 | 15.6 | 0.00 | 0.00 | 0.00 | 46 | 1013.2 |
| 20260503181510 | 61 | 238 | 7.8 | 15.6 | 0.00 | 0.00 | 0.00 | 47 | 1013.5 |
| 20260503181006 | 59 | 201 | 6.1 | 14.8 | 0.00 | 0.00 | 0.00 | 49 | 1013.7 |
| 20260503180504 | 59 | 220 | 10.4 | 13.0 | 0.00 | 0.00 | 0.00 | 52 | 1014.1 |
| 20260503180017 | 58 | 244 | 7.0 | 15.6 | 0.00 | 0.00 | 0.00 | 52 | 1014.2 |
| 20260503175503 | 58 | 231 | 8.7 | 13.9 | 0.00 | 0.00 | 0.00 | 52 | 1014.2 |
| 20260503175007 | 58 | 219 | 7.8 | 13.9 | 0.00 | 0.00 | 0.00 | 51 | 1014.3 |
| 20260503174527 | 58 | 229 | 7.8 | 14.8 | 0.00 | 0.00 | 0.00 | 51 | 1014.6 |
| 20260503174011 | 58 | 248 | 8.7 | 13.9 | 0.00 | 0.00 | 0.00 | 50 | 1014.7 |
| 20260503173512 | 58 | 217 | 8.7 | 17.4 | 0.00 | 0.00 | 0.00 | 51 | 1014.6 |
| 20260503173034 | 58 | 231 | 11.3 | 17.4 | 0.00 | 0.00 | 0.00 | 51 | 1014.6 |
| 20260503172514 | 58 | 217 | 7.0 | 18.2 | 0.00 | 0.00 | 0.00 | 52 | 1014.6 |
| 20260503172010 | 58 | 206 | 10.4 | 15.6 | 0.00 | 0.00 | 0.00 | 50 | 1014.7 |
| 20260503171532 | 58 | 245 | 10.4 | 15.6 | 0.00 | 0.00 | 0.00 | 50 | 1014.6 |
| 20260503171011 | 58 | 214 | 11.3 | 15.6 | 0.00 | 0.00 | 0.00 | 52 | 1014.6 |
| 20260503170510 | 58 | 212 | 10.4 | 17.4 | 0.00 | 0.00 | 0.00 | 52 | 1014.6 |
| 20260503150512 | 55 | 236 | 15.6 | 20.0 | 0.00 | 0.00 | 0.00 | 58 | 1016.1 |
| 20260503131010 | 51 | 210 | 10.4 | 16.5 | 0.00 | 0.00 | 0.00 | 60 | 1017.3 |
| 20260503130508 | 51 | 219 | 10.4 | 16.5 | 0.00 | 0.00 | 0.00 | 59 | 1017.4 |
| 20260503110510 | 43 | 242 | 6.1 | 10.4 | 0.00 | 0.00 | 0.00 | 67 | 1016.8 |
| 20260503090508 | 42 | 206 | 6.1 | 10.4 | 0.00 | 0.00 | 0.00 | 65 | 1017.1 |
| 20260503081532 | 43 | 221 | 6.1 | 8.7 | 0.00 | 0.00 | 0.00 | 63 | 1017.1 |
| 20260503081009 | 42 | 223 | 5.2 | 8.7 | 0.00 | 0.00 | 0.00 | 64 | 1017.2 |
| 20260503080511 | 43 | 240 | 5.2 | 7.8 | 0.00 | 0.00 | 0.00 | 63 | 1017.3 |
| 20260503072512 | 42 | 234 | 4.3 | 5.2 | 0.00 | 0.00 | 0.00 | 65 | 1017.3 |
| 20260503072010 | 42 | 234 | 4.3 | 5.2 | 0.00 | 0.00 | 0.00 | 67 | 1017.3 |
| 20260503071527 | 42 | 227 | 3.5 | 5.2 | 0.00 | 0.00 | 0.00 | 67 | 1017.4 |
| 20260503071009 | 42 | 227 | 4.3 | 5.2 | 0.00 | 0.00 | 0.00 | 67 | 1017.5 |
| 20260503070508 | 42 | 244 | 3.5 | 4.3 | 0.00 | 0.00 | 0.00 | 67 | 1017.5 |